SPOT 5

Satellite information

Favourite Embed

Satellite Type and Status

PAYLOADIN ORBIT

Key statistics

Satellite SPOT 5 at a glance.

Uptime

8406

Days in orbit

Revolutions

≈ 14.5

Per day

Orbit

SSO

Sun Synchronous Orbit

Inclination

98.0

Latest

Satellite identification and parameters

Extended collection of information and parameters for SPOT 5.

Object identification

Identified? True

Debris? False

Object name: SPOT 5

International designator: 2002-021A

Object number (NORAD): 27421

Object ID (CCSDS): 27421

Country: FRANCE (FR)

Current information (Y/N): Y

RCS size: LARGE

Orbital parameters

Period: 99.02 minutes

Inclination: 98.0384 deg

SMA: 7089.912 km

Apoapsis: 805.345 km

Periapsis: 618.208 km

RAAN: 179.3394 deg

Eccentricy: 0.0131974

Argument of periapsis: 93.3386 deg

Mean anomaly: 268.2919 deg

Mean motion: 14.54258203 rev/day

Mean motion (dot): 0.00000772 rev/day2

B* drag term: 0.00017224 1/REarth

Two-line elements (TLE)

Creation date: May 9, 2025, 2:46 a.m.

Reference frame: TEME

Reference center: EARTH

Epoch: May 8, 2025, 5:47 p.m. UTC

TLE line 0: 0 SPOT 5

TLE line 1: 1 27421U 02021A 25128.74122789 .00000772 00000-0 17224-3 0 9994

TLE line 2: 2 27421 98.0384 179.3394 0131974 93.3386 268.2919 14.54258203204055

Live tracking on map

Real-time ground track for satellite SPOT 5.

In-orbit conjunctions

A list of the most updated potential collisions computed for object SPOT 5.

Target Orbit TCA Probability of collision Miss distance Type
CZ-6A DEB LEO 2025-03-31 22:25:12 0.0004149032 687.0 (m) DEBRIS
FENGYUN 1C DEB SSO 2025-01-03 06:45:57 0.0002393269 413.0 (m) DEBRIS
SL-24 R/B SSO 2024-11-23 01:32:53 0.0004085705 483.0 (m) ROCKET BODY
SL-16 DEB LEO 2024-09-04 23:43:02 0.001672898 147.0 (m) DEBRIS
CZ-6A DEB SSO 2024-05-28 19:08:20 0.0002701387 722.0 (m) DEBRIS

Associated space launch

The main instrument was the HRVIR imaging camera payload including a 2.5-meter resolution imager. A secondary experiment was the 5-band VEGETATION-2 instrument with 1-km resolution.

SPOT 5 was lifted into orbit during the mission ‘Ariane 42P | SPOT 5’, on board a Ariane 42P space rocket.

The launch took place on May 4, 2002, 1:31 a.m. from Ariane Launch Area 2.

For more information about the launch, click the button.

Launch to space Ariane 42P | SPOT 5
Ariane 42P | SPOT 5

Agency: N/A

Status: Launch Successful

Launch date: May 4, 2002, 1:31 a.m. UTC

Rocket: Ariane 42P

Launch pad: Ariane Launch Area 2

Location: Guiana Space Centre, French Guiana

...

Latest news about this satellite

There are no fresh news available about this satellite. Check back as we update our databases every day.


Newsletter sign-up

Weekly statistics, charts and insights to help you stay on top of the space industry.